User: anonymous   Login
Location: ?????????
(38.4921°N, 22.9787°E)
Time: 04:48:20
(UTC+00:00)
Language:

ATLAS 2AS CENTAUR R/B - Orbit

View from above orbital plane
View from above orbital plane
View from above satellite
View from above satellite

Ground track
Ground track

The orbit is defined by the following mean orbital elements,

1 28096U          26041.97573458 +.00000000 +00000-0 +67720-4 0 00005
2 28096  63.6822 353.7624 0074355 120.6191 240.2195 13.41060015    02
Epoch (UTC): 10 February 2026 23:25:03
Eccentricity: 0.0074355
inclination: 63.6822°
perigee height: 1050 km
apogee height: 1161 km
right ascension of ascending node: 353.7624°
argument of perigee: 120.6191°
revolutions per day: 13.41060015
mean anomaly at epoch: 240.2195°

The dashed part of the orbit path shows where the satellite is in the earth's shadow,  

DLR